contact:dominique.lefevre@mio.osupytheas.fr, maurice.libes@osupytheas.fr, didier.mallarino@osupytheas.fr
Project:EMSO http://www.emso-fr.org/EMSO-France
Depth: 2436.0 m
Title:EMSO Ligure Ouest : Data MII capteur AQUADOPP
Date,Latitude,Longitude,X_East,Y_North,Z_Up,Amplitude_X,Amplitude_Y,Amplitude_Z,Batterie,SoundSpeed,Heading,Pitch,Roll,Pressure,TIS,Speed,Direction
, degrees North, degrees East, m.s-1, m.s-1,m.s-1, 1, 1, 1, Volt, m.s-1, degree, degree, degree, dbar, degree_C, m.s-1, degree
2022-06-20T00:04:03,42.805,6.029,0.009,-0.025,-0.008,105.0,106.0,103.0,13.4,1505.2,327.8,-0.7,1.8,2471.016,13.28,0.026,160.2
2022-06-20T00:07:03,42.805,6.029,0.01,-0.009,-0.02,105.0,106.0,104.0,13.4,1505.2,328.7,-0.8,1.8,2471.033,13.28,0.013,132.0
2022-06-20T00:10:03,42.805,6.029,0.019,-0.016,-0.007,105.0,106.0,103.0,13.3,1505.2,328.5,-0.8,1.8,2471.034,13.28,0.024,130.1
2022-06-20T00:13:03,42.805,6.029,0.03,-0.036,-0.018,105.0,107.0,102.0,13.4,1505.2,329.7,-0.8,1.8,2471.028,13.28,0.046,140.2
2022-06-20T00:16:03,42.805,6.029,0.014,-0.01,0.023,106.0,106.0,102.0,13.4,1505.2,327.8,-0.8,1.8,2471.032,13.28,0.017,125.5
2022-06-20T00:19:03,42.805,6.029,-0.002,-0.019,-0.01,106.0,106.0,103.0,13.4,1505.2,329.0,-0.7,1.8,2471.045,13.28,0.019,186.0
2022-06-20T00:22:03,42.805,6.029,0.022,-0.028,-0.022,107.0,104.0,103.0,13.4,1505.2,329.2,-0.7,1.8,2470.995,13.28,0.035,141.8
2022-06-20T00:25:03,42.805,6.029,0.013,-0.025,-0.003,106.0,105.0,104.0,13.4,1505.2,320.7,-0.8,1.8,2470.977,13.29,0.028,152.5
2022-06-20T00:28:03,42.805,6.029,-0.001,0.0,-0.017,105.0,105.0,103.0,13.4,1505.2,322.6,-0.8,1.8,2470.999,13.29,0.001,270.0
2022-06-20T00:31:03,42.805,6.029,0.026,-0.036,-0.037,105.0,106.0,103.0,13.4,1505.2,328.7,-0.8,1.8,2471.019,13.29,0.044,144.2
2022-06-20T00:34:03,42.805,6.029,0.002,-0.021,-0.034,106.0,106.0,104.0,13.3,1505.2,327.8,-0.7,1.8,2470.988,13.29,0.021,174.6
2022-06-20T00:37:03,42.805,6.029,0.022,-0.027,-0.019,106.0,106.0,103.0,13.3,1505.2,327.0,-0.7,1.8,2471.061,13.29,0.034,140.8
2022-06-20T00:40:03,42.805,6.029,0.011,-0.021,-0.024,105.0,106.0,102.0,13.3,1505.2,328.4,-0.8,1.8,2470.984,13.29,0.023,152.4
2022-06-20T00:43:03,42.805,6.029,0.022,0.009,-0.003,107.0,105.0,103.0,13.4,1505.2,328.6,-0.8,1.8,2470.965,13.29,0.023,67.8
2022-06-20T00:46:03,42.805,6.029,0.019,-0.024,-0.016,106.0,105.0,103.0,13.4,1505.2,329.1,-0.7,1.8,2470.963,13.29,0.03,141.6
2022-06-20T00:49:03,42.805,6.029,0.005,-0.008,-0.027,107.0,104.0,103.0,13.4,1505.2,332.5,-0.8,1.8,2470.957,13.29,0.009,148.0
2022-06-20T00:52:03,42.805,6.029,0.004,-0.004,-0.008,104.0,104.0,103.0,13.4,1505.2,330.0,-0.8,1.8,2470.958,13.29,0.005,135.0
2022-06-20T00:55:03,42.805,6.029,-0.005,-0.019,0.003,105.0,105.0,102.0,13.4,1505.2,320.8,-0.8,1.8,2470.972,13.29,0.019,194.7
2022-06-20T00:58:03,42.805,6.029,0.01,-0.034,0.003,104.0,106.0,103.0,13.4,1505.2,324.8,-0.7,1.8,2470.995,13.29,0.035,163.6
2022-06-20T01:01:03,42.805,6.029,0.012,-0.011,-0.001,106.0,105.0,103.0,13.4,1505.2,323.6,-0.7,1.8,2470.989,13.29,0.016,132.5
2022-06-20T01:04:03,42.805,6.029,0.003,-0.004,-0.007,106.0,105.0,103.0,13.4,1505.2,330.0,-0.8,1.8,2470.979,13.29,0.005,143.1
2022-06-20T01:07:03,42.805,6.029,0.012,-0.005,0.004,104.0,105.0,103.0,13.3,1505.2,326.1,-0.7,1.8,2470.988,13.29,0.013,112.6
2022-06-20T01:10:03,42.805,6.029,0.007,-0.01,-0.019,105.0,104.0,102.0,13.3,1505.2,324.5,-0.7,1.8,2470.985,13.29,0.012,145.0
2022-06-20T01:13:03,42.805,6.029,0.022,-0.018,-0.008,105.0,104.0,103.0,13.3,1505.2,325.7,-0.7,1.8,2470.963,13.29,0.028,129.3
2022-06-20T01:16:03,42.805,6.029,0.0,-0.007,-0.023,104.0,104.0,102.0,13.3,1505.2,319.9,-0.8,1.8,2471.04,13.29,0.007,180.0
2022-06-20T01:19:03,42.805,6.029,0.032,-0.019,-0.006,106.0,104.0,103.0,13.3,1505.2,320.4,-0.8,1.8,2470.95,13.29,0.037,120.7
2022-06-20T01:22:03,42.805,6.029,0.019,-0.024,-0.026,105.0,104.0,102.0,13.4,1505.2,323.3,-0.7,1.8,2471.009,13.29,0.03,141.6
2022-06-20T01:25:03,42.805,6.029,0.015,-0.004,-0.009,106.0,104.0,102.0,13.4,1505.2,321.6,-0.8,1.8,2471.011,13.29,0.015,104.9
2022-06-20T01:28:03,42.805,6.029,-0.011,-0.02,-0.03,106.0,104.0,103.0,13.3,1505.2,331.8,-0.8,1.8,2470.944,13.29,0.022,208.8
2022-06-20T01:31:03,42.805,6.029,0.017,-0.005,0.034,105.0,103.0,102.0,13.4,1505.2,324.8,-0.7,1.8,2470.986,13.29,0.017,106.4
2022-06-20T01:34:03,42.805,6.029,0.01,-0.006,-0.009,105.0,105.0,102.0,13.4,1505.2,331.8,-0.8,1.8,2470.957,13.29,0.011,121.0
2022-06-20T01:37:03,42.805,6.029,0.011,-0.018,-0.006,104.0,104.0,102.0,13.4,1505.2,321.0,-0.7,1.8,2470.985,13.29,0.021,148.6
2022-06-20T01:40:03,42.805,6.029,0.028,-0.037,-0.053,105.0,105.0,102.0,13.4,1505.2,325.4,-0.7,1.8,2470.964,13.29,0.046,142.9
2022-06-20T01:43:03,42.805,6.029,0.0,-0.017,-0.003,104.0,103.0,103.0,13.4,1505.2,327.9,-0.8,1.8,2470.988,13.29,0.017,180.0
2022-06-20T01:46:03,42.805,6.029,0.023,-0.035,0.017,104.0,105.0,102.0,13.4,1505.2,327.2,-0.8,1.8,2470.964,13.29,0.041,146.7
2022-06-20T01:49:03,42.805,6.029,0.041,-0.025,-0.01,104.0,104.0,102.0,13.4,1505.2,327.4,-0.8,1.8,2470.978,13.29,0.048,121.4
2022-06-20T01:52:03,42.805,6.029,0.012,-0.019,-0.007,106.0,103.0,103.0,13.4,1505.2,329.6,-0.7,1.9,2470.938,13.29,0.022,147.7
2022-06-20T01:55:03,42.805,6.029,0.004,-0.027,-0.04,107.0,104.0,102.0,13.4,1505.2,328.2,-0.8,1.8,2470.972,13.29,0.027,171.6
2022-06-20T01:58:03,42.805,6.029,0.03,-0.003,0.009,105.0,104.0,102.0,13.4,1505.2,326.5,-0.8,1.8,2470.962,13.29,0.03,95.7
2022-06-20T02:04:03,42.805,6.029,0.023,0.004,-0.017,107.0,104.0,103.0,13.4,1505.2,324.3,-0.8,1.8,2470.967,13.28,0.023,80.1
2022-06-20T02:07:03,42.805,6.029,0.027,-0.003,-0.007,104.0,106.0,103.0,13.4,1505.2,320.4,-0.7,1.8,2470.983,13.28,0.027,96.3
2022-06-20T02:10:03,42.805,6.029,-0.004,-0.025,-0.021,106.0,105.0,103.0,13.3,1505.2,332.1,-0.8,1.8,2470.961,13.28,0.025,189.1
2022-06-20T02:13:03,42.805,6.029,0.021,-0.022,-0.024,105.0,105.0,102.0,13.3,1505.2,328.8,-0.8,1.8,2470.938,13.28,0.03,136.3
2022-06-20T02:16:03,42.805,6.029,0.001,0.007,-0.014,105.0,105.0,102.0,13.4,1505.2,327.5,-0.8,1.8,2470.961,13.28,0.007,8.1
2022-06-20T02:19:03,42.805,6.029,0.021,-0.009,-0.005,105.0,105.0,102.0,13.4,1505.2,328.9,-0.8,1.8,2470.965,13.28,0.022,113.2
2022-06-20T02:22:03,42.805,6.029,0.017,-0.001,-0.003,105.0,103.0,102.0,13.4,1505.2,319.9,-0.8,1.8,2470.955,13.28,0.017,93.4
2022-06-20T02:25:03,42.805,6.029,0.03,-0.003,-0.019,105.0,106.0,103.0,13.3,1505.2,320.1,-0.8,1.8,2470.979,13.29,0.03,95.7
2022-06-20T02:28:03,42.805,6.029,0.024,-0.012,-0.017,105.0,105.0,104.0,13.4,1505.2,325.8,-0.7,1.8,2470.913,13.29,0.026,116.6
2022-06-20T02:31:03,42.805,6.029,0.021,0.0,-0.045,105.0,105.0,102.0,13.4,1505.2,325.3,-0.7,1.8,2470.933,13.29,0.021,90.0
2022-06-20T02:34:03,42.805,6.029,0.015,-0.012,-0.014,107.0,105.0,103.0,13.3,1505.2,327.2,-0.8,1.8,2470.956,13.29,0.019,128.7
2022-06-20T02:37:03,42.805,6.029,0.031,-0.023,0.015,106.0,105.0,103.0,13.4,1505.2,333.2,-0.8,1.8,2470.948,13.29,0.038,126.6
2022-06-20T02:40:03,42.805,6.029,-0.004,0.012,-0.031,104.0,107.0,103.0,13.4,1505.2,324.8,-0.8,1.8,2470.937,13.29,0.012,341.6
2022-06-20T02:43:03,42.805,6.029,0.022,-0.015,-0.001,105.0,105.0,103.0,13.4,1505.2,323.4,-0.8,1.8,2470.965,13.29,0.026,124.3
2022-06-20T02:46:03,42.805,6.029,0.022,-0.015,0.008,106.0,106.0,103.0,13.3,1505.2,331.2,-0.7,1.8,2470.914,13.29,0.026,124.3
2022-06-20T02:49:03,42.805,6.029,0.014,-0.015,-0.01,106.0,106.0,103.0,13.4,1505.2,327.9,-0.8,1.8,2470.978,13.29,0.02,137.0
2022-06-20T02:52:03,42.805,6.029,0.026,0.01,-0.02,106.0,105.0,102.0,13.4,1505.2,321.6,-0.8,1.8,2470.968,13.29,0.027,69.0
2022-06-20T02:55:03,42.805,6.029,0.044,0.002,-0.008,106.0,105.0,102.0,13.4,1505.2,321.1,-0.7,1.9,2470.88,13.29,0.044,87.4
2022-06-20T02:58:03,42.805,6.029,0.039,-0.014,-0.016,107.0,104.0,103.0,13.4,1505.2,321.4,-0.8,1.8,2470.91,13.29,0.041,109.7
2022-06-20T03:04:03,42.805,6.029,0.011,-0.029,-0.002,105.0,105.0,103.0,13.3,1505.2,327.4,-0.8,1.8,2470.954,13.28,0.031,159.2
2022-06-20T03:07:03,42.805,6.029,0.021,-0.011,-0.021,105.0,106.0,103.0,13.4,1505.2,322.6,-0.8,1.8,2470.936,13.28,0.023,117.6
2022-06-20T03:10:03,42.805,6.029,0.009,-0.021,-0.024,105.0,105.0,102.0,13.4,1505.2,324.4,-0.8,1.8,2470.96,13.28,0.022,156.8
2022-06-20T03:13:03,42.805,6.029,0.019,-0.017,0.004,105.0,106.0,102.0,13.4,1505.2,325.3,-0.7,1.8,2470.925,13.28,0.025,131.8
2022-06-20T03:16:03,42.805,6.029,0.034,0.002,-0.026,105.0,105.0,102.0,13.4,1505.2,328.1,-0.8,1.8,2470.942,13.28,0.034,86.6
2022-06-20T03:19:03,42.805,6.029,0.022,-0.016,0.0,106.0,106.0,103.0,13.4,1505.2,325.5,-0.7,1.8,2470.94,13.29,0.027,126.0
2022-06-20T03:22:03,42.805,6.029,-0.008,-0.021,-0.015,106.0,104.0,103.0,13.4,1505.2,326.4,-0.8,1.9,2470.928,13.29,0.022,200.9
2022-06-20T03:25:03,42.805,6.029,0.021,-0.005,-0.03,104.0,105.0,104.0,13.4,1505.2,329.5,-0.7,1.9,2470.94,13.29,0.021,103.4
2022-06-20T03:28:03,42.805,6.029,0.023,-0.017,-0.002,106.0,105.0,103.0,13.4,1505.2,332.3,-0.8,1.8,2470.922,13.29,0.028,126.5
2022-06-20T03:31:03,42.805,6.029,0.026,0.007,-0.01,108.0,106.0,103.0,13.4,1505.2,329.2,-0.7,1.8,2470.944,13.29,0.026,74.9
2022-06-20T03:34:03,42.805,6.029,0.017,-0.023,-0.012,105.0,106.0,104.0,13.3,1505.2,331.0,-0.8,1.8,2470.936,13.28,0.028,143.5
2022-06-20T03:37:03,42.805,6.029,0.004,-0.021,-0.046,107.0,105.0,104.0,13.4,1505.2,320.5,-0.7,1.8,2470.941,13.29,0.021,169.2
2022-06-20T03:40:03,42.805,6.029,0.016,-0.012,-0.012,105.0,105.0,102.0,13.3,1505.2,320.0,-0.8,1.8,2470.917,13.29,0.02,126.9
2022-06-20T03:43:03,42.805,6.029,0.023,-0.018,-0.01,106.0,105.0,103.0,13.4,1505.2,322.2,-0.8,1.8,2470.889,13.28,0.029,128.0
2022-06-20T03:46:03,42.805,6.029,0.002,-0.001,-0.006,106.0,104.0,103.0,13.4,1505.2,325.6,-0.8,1.8,2470.938,13.29,0.002,116.6
2022-06-20T03:49:03,42.805,6.029,0.018,-0.007,-0.016,106.0,105.0,101.0,13.4,1505.2,334.1,-0.7,1.9,2470.884,13.29,0.019,111.2
2022-06-20T03:52:03,42.805,6.029,0.007,-0.031,-0.011,106.0,104.0,103.0,13.4,1505.2,325.6,-0.8,1.8,2470.91,13.29,0.031,167.3
2022-06-20T03:55:03,42.805,6.029,0.018,-0.01,-0.029,105.0,106.0,103.0,13.4,1505.2,320.4,-0.8,1.8,2470.906,13.29,0.02,119.1
2022-06-20T03:58:03,42.805,6.029,0.035,-0.023,0.007,106.0,105.0,102.0,13.3,1505.2,325.1,-0.7,1.8,2470.911,13.29,0.041,123.3
2022-06-20T04:04:03,42.805,6.029,0.001,-0.012,-0.021,104.0,104.0,103.0,13.4,1505.2,325.7,-0.8,1.8,2470.928,13.28,0.012,175.2
2022-06-20T04:07:03,42.805,6.029,0.006,-0.011,-0.033,104.0,105.0,103.0,13.3,1505.2,321.2,-0.8,1.8,2470.95,13.28,0.012,151.4
2022-06-20T04:10:03,42.805,6.029,0.025,-0.005,-0.01,105.0,104.0,102.0,13.4,1505.2,323.5,-0.8,1.8,2470.921,13.28,0.025,101.3
2022-06-20T04:13:03,42.805,6.029,-0.011,-0.004,-0.034,105.0,106.0,103.0,13.4,1505.2,332.2,-0.8,1.8,2470.919,13.28,0.011,250.0
2022-06-20T04:16:03,42.805,6.029,-0.008,-0.003,0.0,105.0,105.0,103.0,13.4,1505.2,326.1,-0.8,1.8,2470.906,13.28,0.008,249.4
2022-06-20T04:19:03,42.805,6.029,0.009,-0.021,-0.041,105.0,105.0,104.0,13.4,1505.2,321.1,-0.7,1.8,2470.925,13.29,0.022,156.8
2022-06-20T04:22:03,42.805,6.029,0.009,-0.018,-0.021,106.0,104.0,102.0,13.4,1505.2,325.6,-0.8,1.8,2470.914,13.29,0.02,153.4
2022-06-20T04:25:03,42.805,6.029,0.006,-0.016,-0.006,107.0,107.0,103.0,13.4,1505.2,330.1,-0.8,1.8,2470.916,13.29,0.017,159.4
2022-06-20T04:28:03,42.805,6.029,0.014,-0.009,0.014,106.0,105.0,103.0,13.4,1505.2,325.6,-0.7,1.8,2470.898,13.29,0.016,122.7
2022-06-20T04:31:03,42.805,6.029,-0.003,-0.014,-0.034,107.0,105.0,102.0,13.4,1505.2,320.9,-0.8,1.8,2470.88,13.29,0.014,192.1
2022-06-20T04:34:03,42.805,6.029,0.012,-0.029,-0.015,105.0,105.0,103.0,13.4,1505.2,333.2,-0.8,1.8,2470.838,13.29,0.031,157.5
2022-06-20T04:37:03,42.805,6.029,0.01,-0.006,-0.007,106.0,105.0,102.0,13.4,1505.2,323.3,-0.8,1.8,2470.872,13.29,0.011,121.0
2022-06-20T04:40:03,42.805,6.029,0.0,0.001,-0.007,105.0,106.0,102.0,13.3,1505.2,330.1,-0.8,1.9,2470.874,13.29,0.001,0.0
2022-06-20T04:43:03,42.805,6.029,0.025,-0.011,-0.001,104.0,104.0,103.0,13.4,1505.2,328.7,-0.8,1.8,2470.843,13.29,0.027,113.7
2022-06-20T04:46:03,42.805,6.029,0.018,-0.006,-0.037,106.0,104.0,102.0,13.4,1505.2,324.6,-0.7,1.8,2470.853,13.29,0.018,108.4
2022-06-20T04:49:03,42.805,6.029,0.025,0.001,-0.017,106.0,105.0,103.0,13.4,1505.2,325.1,-0.7,1.8,2470.886,13.29,0.025,87.7
2022-06-20T04:52:03,42.805,6.029,0.003,-0.015,-0.06,106.0,106.0,103.0,13.4,1505.2,332.5,-0.8,1.8,2470.845,13.29,0.015,168.7
2022-06-20T04:55:03,42.805,6.029,0.002,-0.015,-0.002,105.0,105.0,103.0,13.3,1505.2,323.6,-0.7,1.8,2470.867,13.29,0.015,172.4
2022-06-20T04:58:03,42.805,6.029,-0.001,0.003,-0.02,105.0,105.0,103.0,13.4,1505.2,324.1,-0.7,1.8,2470.871,13.29,0.003,341.6
2022-06-20T05:04:03,42.805,6.029,0.016,-0.002,-0.013,106.0,103.0,102.0,13.3,1505.2,325.0,-0.7,1.8,2470.859,13.28,0.016,97.1
2022-06-20T05:07:03,42.805,6.029,0.015,-0.003,-0.012,105.0,105.0,103.0,13.4,1505.2,323.6,-0.8,1.8,2470.873,13.28,0.015,101.3
2022-06-20T05:10:03,42.805,6.029,-0.003,-0.013,-0.048,106.0,105.0,103.0,13.4,1505.2,325.2,-0.7,1.8,2470.835,13.28,0.013,193.0
2022-06-20T05:13:03,42.805,6.029,0.004,-0.006,0.003,107.0,104.0,103.0,13.3,1505.2,324.0,-0.8,1.8,2470.856,13.28,0.007,146.3
2022-06-20T05:16:03,42.805,6.029,-0.005,-0.003,0.007,107.0,104.0,103.0,13.4,1505.2,326.7,-0.7,1.9,2470.881,13.29,0.005,239.0
2022-06-20T05:19:03,42.805,6.029,0.004,-0.016,-0.021,105.0,104.0,101.0,13.4,1505.2,328.8,-0.7,1.8,2470.842,13.29,0.016,166.0
2022-06-20T05:22:03,42.805,6.029,-0.015,-0.035,0.02,105.0,105.0,103.0,13.3,1505.2,327.6,-0.8,1.8,2470.871,13.29,0.038,203.2
2022-06-20T05:25:03,42.805,6.029,0.0,-0.017,-0.047,104.0,106.0,102.0,13.4,1505.2,325.2,-0.7,1.8,2470.836,13.29,0.017,180.0
2022-06-20T05:28:03,42.805,6.029,0.006,-0.01,0.001,105.0,105.0,103.0,13.4,1505.2,328.8,-0.7,1.8,2470.858,13.29,0.011,149.0
2022-06-20T05:31:03,42.805,6.029,0.007,-0.008,-0.003,106.0,105.0,103.0,13.4,1505.2,324.9,-0.8,1.8,2470.839,13.29,0.01,138.8
2022-06-20T05:34:03,42.805,6.029,-0.021,-0.014,-0.012,107.0,104.0,103.0,13.4,1505.2,327.8,-0.8,1.8,2470.89,13.29,0.025,236.3
2022-06-20T05:37:03,42.805,6.029,0.007,-0.015,-0.008,106.0,105.0,103.0,13.3,1505.2,321.2,-0.8,1.8,2470.83,13.29,0.016,155.0
2022-06-20T05:40:03,42.805,6.029,-0.014,-0.01,0.005,104.0,105.0,103.0,13.3,1505.2,325.9,-0.7,1.8,2470.829,13.29,0.017,234.5
2022-06-20T05:43:03,42.805,6.029,-0.004,0.004,-0.024,107.0,105.0,102.0,13.4,1505.2,332.5,-0.8,1.8,2470.82,13.29,0.005,315.0
2022-06-20T05:46:03,42.805,6.029,0.017,-0.009,-0.004,106.0,105.0,104.0,13.4,1505.2,322.9,-0.8,1.8,2470.844,13.29,0.019,117.9
2022-06-20T05:49:03,42.805,6.029,-0.009,-0.014,-0.009,106.0,105.0,102.0,13.3,1505.2,323.3,-0.8,1.8,2470.831,13.29,0.016,212.7
2022-06-20T05:52:03,42.805,6.029,0.015,-0.027,-0.026,106.0,105.0,101.0,13.4,1505.2,331.2,-0.8,1.8,2470.804,13.29,0.03,150.9
2022-06-20T05:55:03,42.805,6.029,-0.002,-0.003,-0.02,105.0,104.0,102.0,13.4,1505.2,325.7,-0.7,1.8,2470.822,13.29,0.003,213.7
2022-06-20T05:58:03,42.805,6.029,0.007,0.001,0.005,104.0,104.0,102.0,13.4,1505.2,320.9,-0.7,1.8,2470.814,13.29,0.007,81.9
2022-06-20T06:04:03,42.805,6.029,0.013,0.004,-0.015,106.0,103.0,103.0,13.3,1505.2,331.2,-0.8,1.8,2470.873,13.28,0.013,72.9
2022-06-20T06:07:03,42.805,6.029,-0.002,-0.019,0.007,104.0,104.0,104.0,13.4,1505.2,328.3,-0.8,1.8,2470.877,13.28,0.019,186.0
2022-06-20T06:10:03,42.805,6.029,-0.006,-0.009,-0.019,106.0,105.0,101.0,13.4,1505.2,322.6,-0.8,1.8,2470.866,13.28,0.01,213.7
2022-06-20T06:13:03,42.805,6.029,0.014,-0.017,0.019,106.0,106.0,103.0,13.4,1505.2,322.0,-0.8,1.8,2470.871,13.29,0.022,140.5
2022-06-20T06:16:03,42.805,6.029,0.025,0.012,-0.005,106.0,104.0,102.0,13.4,1505.2,324.9,-0.8,1.8,2470.857,13.29,0.027,64.4
2022-06-20T06:19:03,42.805,6.029,0.019,-0.001,-0.055,106.0,104.0,102.0,13.4,1505.2,328.3,-0.8,1.8,2470.821,13.29,0.019,93.0
2022-06-20T06:22:03,42.805,6.029,0.005,-0.007,-0.014,105.0,106.0,102.0,13.4,1505.2,325.9,-0.8,1.8,2470.853,13.29,0.008,144.5
2022-06-20T06:25:03,42.805,6.029,-0.002,0.0,-0.025,106.0,106.0,103.0,13.4,1505.2,329.2,-0.8,1.8,2470.82,13.29,0.002,270.0
2022-06-20T06:28:03,42.805,6.029,0.02,0.0,0.009,106.0,104.0,102.0,13.3,1505.2,324.8,-0.7,1.8,2470.821,13.29,0.02,90.0
2022-06-20T06:31:03,42.805,6.029,0.017,-0.016,0.0,107.0,105.0,102.0,13.4,1505.2,323.4,-0.8,1.8,2470.814,13.29,0.023,133.3
2022-06-20T06:34:03,42.805,6.029,0.0,-0.01,0.001,105.0,103.0,103.0,13.4,1505.2,322.5,-0.7,1.8,2470.824,13.29,0.01,180.0
2022-06-20T06:37:03,42.805,6.029,0.009,-0.006,-0.002,105.0,105.0,103.0,13.4,1505.2,322.9,-0.8,1.8,2470.816,13.29,0.01,123.7
2022-06-20T06:40:03,42.805,6.029,0.015,-0.005,-0.009,107.0,105.0,103.0,13.4,1505.2,330.8,-0.8,1.8,2470.818,13.29,0.015,108.4
2022-06-20T06:43:03,42.805,6.029,0.006,-0.014,-0.037,104.0,104.0,104.0,13.4,1505.2,320.0,-0.8,1.8,2470.798,13.29,0.015,156.8
2022-06-20T06:46:03,42.805,6.029,0.004,-0.004,-0.016,104.0,109.0,104.0,13.4,1505.2,328.5,-0.7,1.8,2470.816,13.29,0.005,135.0
2022-06-20T06:49:03,42.805,6.029,0.005,0.003,-0.031,105.0,105.0,102.0,13.4,1505.2,323.7,-0.8,1.8,2470.855,13.29,0.005,59.0
2022-06-20T06:52:03,42.805,6.029,0.0,0.0,-0.017,107.0,105.0,103.0,13.4,1505.2,324.7,-0.7,1.9,2470.788,13.29,0.0,0.0
2022-06-20T06:55:03,42.805,6.029,0.007,-0.008,-0.008,105.0,104.0,102.0,13.3,1505.2,327.8,-0.8,1.8,2470.795,13.29,0.01,138.8
2022-06-20T06:58:03,42.805,6.029,0.006,0.002,0.005,106.0,103.0,103.0,13.4,1505.2,324.0,-0.8,1.9,2470.832,13.29,0.006,71.6
2022-06-20T07:04:03,42.805,6.029,-0.002,-0.018,-0.013,105.0,106.0,103.0,13.3,1505.2,327.8,-0.7,1.8,2470.855,13.28,0.018,186.3
2022-06-20T07:07:03,42.805,6.029,0.01,-0.007,-0.008,113.0,105.0,102.0,13.3,1505.2,329.7,-0.8,1.8,2470.836,13.28,0.012,125.0
2022-06-20T07:10:03,42.805,6.029,0.021,-0.006,-0.003,108.0,105.0,103.0,13.3,1505.2,324.6,-0.7,1.8,2470.839,13.29,0.021,105.9
2022-06-20T07:13:03,42.805,6.029,0.0,0.005,-0.023,104.0,104.0,103.0,13.4,1505.2,325.0,-0.7,1.8,2470.799,13.29,0.005,0.0
2022-06-20T07:16:03,42.805,6.029,0.021,-0.018,-0.021,106.0,105.0,102.0,13.3,1505.2,321.8,-0.7,1.8,2470.797,13.29,0.027,130.6
2022-06-20T07:19:03,42.805,6.029,0.024,-0.007,-0.05,104.0,107.0,102.0,13.3,1505.2,325.2,-0.8,1.8,2470.778,13.29,0.025,106.3
2022-06-20T07:22:03,42.805,6.029,0.014,-0.006,-0.034,106.0,105.0,102.0,13.4,1505.2,325.4,-0.8,1.8,2470.792,13.29,0.015,113.2
2022-06-20T07:25:03,42.805,6.029,0.012,-0.013,-0.04,105.0,106.0,101.0,13.4,1505.2,327.2,-0.8,1.8,2470.797,13.29,0.017,137.3
2022-06-20T07:28:03,42.805,6.029,0.009,-0.023,0.002,106.0,106.0,102.0,13.3,1505.2,332.9,-0.7,1.8,2470.758,13.29,0.024,158.6
2022-06-20T07:31:03,42.805,6.029,0.018,-0.012,-0.022,105.0,103.0,102.0,13.4,1505.2,331.6,-0.8,1.8,2470.796,13.29,0.021,123.7
2022-06-20T07:34:03,42.805,6.029,0.026,-0.028,0.001,108.0,106.0,102.0,13.4,1505.2,321.5,-0.7,1.8,2470.805,13.29,0.038,137.1
2022-06-20T07:37:03,42.805,6.029,-0.001,-0.011,-0.01,105.0,105.0,102.0,13.3,1505.2,323.9,-0.7,1.8,2470.812,13.29,0.011,185.2
2022-06-20T07:40:03,42.805,6.029,0.019,0.0,-0.003,106.0,105.0,102.0,13.4,1505.2,325.0,-0.8,1.8,2470.841,13.29,0.019,90.0
2022-06-20T07:43:03,42.805,6.029,-0.004,0.015,0.006,107.0,105.0,102.0,13.4,1505.2,327.3,-0.8,1.8,2470.799,13.29,0.015,345.1
2022-06-20T07:46:03,42.805,6.029,0.033,0.003,0.005,104.0,105.0,104.0,13.4,1505.2,323.1,-0.8,1.8,2470.79,13.29,0.033,84.8
2022-06-20T07:49:03,42.805,6.029,-0.006,0.01,-0.016,106.0,106.0,103.0,13.4,1505.2,329.1,-0.7,1.8,2470.837,13.29,0.011,329.0
2022-06-20T07:52:03,42.805,6.029,0.022,0.008,0.007,106.0,104.0,103.0,13.4,1505.2,320.6,-0.8,1.8,2470.808,13.29,0.023,70.0
2022-06-20T07:55:03,42.805,6.029,-0.002,-0.005,-0.024,104.0,105.0,104.0,13.3,1505.2,330.3,-0.7,1.8,2470.8,13.29,0.005,201.8
2022-06-20T07:58:03,42.805,6.029,0.014,0.018,0.007,105.0,106.0,102.0,13.4,1505.2,327.8,-0.8,1.8,2470.816,13.29,0.022,37.9
2022-06-20T08:04:03,42.805,6.029,0.015,0.0,-0.029,106.0,106.0,102.0,13.4,1505.2,324.6,-0.8,1.8,2470.856,13.28,0.015,90.0
2022-06-20T08:07:03,42.805,6.029,0.016,-0.008,-0.037,105.0,105.0,103.0,13.4,1505.2,328.2,-0.8,1.9,2470.85,13.28,0.017,116.6
2022-06-20T08:10:03,42.805,6.029,0.011,-0.016,0.013,106.0,106.0,103.0,13.4,1505.2,324.4,-0.8,1.8,2470.857,13.28,0.019,145.5
2022-06-20T08:13:03,42.805,6.029,0.007,-0.017,-0.013,106.0,106.0,103.0,13.3,1505.2,333.0,-0.7,1.8,2470.821,13.29,0.018,157.6
2022-06-20T08:16:03,42.805,6.029,0.006,0.011,0.008,106.0,104.0,102.0,13.3,1505.2,322.7,-0.7,1.8,2470.83,13.29,0.012,28.6
2022-06-20T08:19:03,42.805,6.029,0.013,0.008,-0.008,104.0,106.0,103.0,13.3,1505.2,324.7,-0.7,1.8,2470.834,13.29,0.015,58.4
2022-06-20T08:22:03,42.805,6.029,0.01,-0.005,0.021,106.0,106.0,103.0,13.4,1505.2,327.9,-0.8,1.8,2470.809,13.29,0.011,116.6
2022-06-20T08:25:03,42.805,6.029,0.023,0.006,-0.014,104.0,105.0,103.0,13.4,1505.2,319.9,-0.7,1.8,2470.84,13.29,0.023,75.4
2022-06-20T08:28:03,42.805,6.029,0.024,-0.006,-0.009,106.0,105.0,103.0,13.4,1505.2,322.4,-0.8,1.8,2470.845,13.29,0.024,104.0
2022-06-20T08:31:03,42.805,6.029,-0.006,-0.016,-0.015,105.0,106.0,103.0,13.3,1505.2,325.5,-0.7,1.8,2470.848,13.29,0.017,200.6
2022-06-20T08:34:03,42.805,6.029,0.001,-0.023,-0.014,106.0,105.0,103.0,13.3,1505.2,327.9,-0.8,1.8,2470.816,13.29,0.023,177.5
2022-06-20T08:37:03,42.805,6.029,0.017,-0.002,-0.004,104.0,106.0,103.0,13.4,1505.2,324.2,-0.8,1.8,2470.76,13.29,0.017,96.7
2022-06-20T08:40:03,42.805,6.029,-0.003,-0.01,-0.005,104.0,106.0,102.0,13.3,1505.2,328.2,-0.8,1.8,2470.811,13.29,0.01,196.7
2022-06-20T08:43:03,42.805,6.029,0.02,0.0,0.0,105.0,106.0,101.0,13.4,1505.2,323.4,-0.8,1.8,2470.835,13.29,0.02,90.0
2022-06-20T08:46:03,42.805,6.029,0.015,-0.002,-0.009,106.0,105.0,104.0,13.3,1505.2,322.2,-0.7,1.8,2470.809,13.29,0.015,97.6
2022-06-20T08:49:03,42.805,6.029,0.0,0.009,-0.005,105.0,104.0,103.0,13.4,1505.2,327.4,-0.7,1.8,2470.831,13.29,0.009,0.0
2022-06-20T08:52:03,42.805,6.029,0.018,-0.004,-0.005,106.0,104.0,103.0,13.4,1505.2,325.4,-0.8,1.8,2470.811,13.29,0.018,102.5
2022-06-20T08:55:03,42.805,6.029,0.007,-0.011,0.003,104.0,105.0,102.0,13.3,1505.2,332.5,-0.8,1.8,2470.802,13.29,0.013,147.5
2022-06-20T08:58:03,42.805,6.029,0.004,-0.007,-0.01,105.0,106.0,103.0,13.4,1505.2,330.0,-0.8,1.8,2470.82,13.29,0.008,150.3
2022-06-20T09:04:03,42.805,6.029,0.006,-0.019,-0.021,104.0,105.0,103.0,13.4,1505.2,324.8,-0.7,1.8,2470.877,13.28,0.019,162.5
2022-06-20T09:07:03,42.805,6.029,0.024,0.01,0.002,107.0,106.0,102.0,13.4,1505.2,323.1,-0.7,1.8,2470.893,13.28,0.026,67.4
2022-06-20T09:10:03,42.805,6.029,0.011,-0.007,-0.019,105.0,104.0,102.0,13.4,1505.2,325.5,-0.8,1.9,2470.844,13.28,0.013,122.5
2022-06-20T09:13:03,42.805,6.029,0.009,-0.001,-0.011,104.0,104.0,102.0,13.4,1505.2,327.5,-0.8,1.8,2470.872,13.28,0.009,96.3
2022-06-20T09:16:03,42.805,6.029,0.002,0.014,-0.022,104.0,104.0,102.0,13.4,1505.2,330.8,-0.8,1.8,2470.821,13.29,0.014,8.1
2022-06-20T09:19:03,42.805,6.029,0.0,0.002,-0.016,106.0,105.0,104.0,13.4,1505.2,325.2,-0.8,1.9,2470.845,13.29,0.002,0.0
2022-06-20T09:22:03,42.805,6.029,0.017,0.023,0.018,105.0,105.0,103.0,13.4,1505.2,324.3,-0.8,1.8,2470.88,13.29,0.028,36.5
2022-06-20T09:25:03,42.805,6.029,0.01,0.012,0.015,106.0,104.0,103.0,13.4,1505.2,328.3,-0.7,1.9,2470.884,13.29,0.015,39.8
2022-06-20T09:28:03,42.805,6.029,0.012,-0.011,0.002,105.0,106.0,103.0,13.4,1505.2,328.5,-0.8,1.8,2470.859,13.29,0.016,132.5
2022-06-20T09:31:03,42.805,6.029,0.022,-0.003,-0.025,106.0,106.0,104.0,13.4,1505.2,330.2,-0.8,1.8,2470.859,13.29,0.022,97.8
2022-06-20T09:34:03,42.805,6.029,0.004,-0.002,-0.016,106.0,105.0,102.0,13.3,1505.2,324.4,-0.7,1.8,2470.888,13.29,0.004,116.6
2022-06-20T09:37:03,42.805,6.029,0.047,-0.007,-0.019,105.0,107.0,104.0,13.4,1505.2,323.5,-0.8,1.8,2470.864,13.29,0.047,98.5
2022-06-20T09:40:03,42.805,6.029,0.03,0.0,0.017,105.0,105.0,102.0,13.4,1505.2,322.1,-0.7,1.8,2470.81,13.29,0.03,90.0
2022-06-20T09:43:03,42.805,6.029,0.018,0.0,-0.018,105.0,105.0,103.0,13.3,1505.2,331.0,-0.7,1.8,2470.852,13.29,0.018,90.0
2022-06-20T09:46:03,42.805,6.029,0.025,-0.011,-0.033,105.0,106.0,103.0,13.4,1505.2,324.7,-0.8,1.8,2470.844,13.29,0.027,113.7
2022-06-20T09:49:03,42.805,6.029,0.026,0.0,-0.002,107.0,105.0,102.0,13.3,1505.2,322.0,-0.8,1.8,2470.871,13.29,0.026,90.0
2022-06-20T09:52:03,42.805,6.029,0.013,0.002,-0.004,105.0,106.0,104.0,13.4,1505.2,332.3,-0.7,1.8,2470.833,13.29,0.013,81.3
2022-06-20T09:55:03,42.805,6.029,0.021,-0.027,-0.005,107.0,105.0,103.0,13.4,1505.2,328.0,-0.8,1.8,2470.841,13.29,0.034,142.1